| time (UTC) | temp C | wind direction | speed KPH | gust KPH | rain 1hr cm | rain 24hr cm | rain mn cm | humidity % | barometer mb |
| 20260505101538 | 14 | 146 | 0.0 | 3.2 | 0.00 | 0.00 | 0.00 | 77 | 1006.3 |
| 20260505100036 | 15 | 181 | 0.0 | 3.2 | 0.00 | 0.00 | 0.00 | 76 | 1006.3 |
| 20260505094534 | 15 | 165 | 1.6 | 8.0 | 0.00 | 0.00 | 0.00 | 76 | 1006.1 |
| 20260505093037 | 15 | 169 | 1.6 | 8.0 | 0.00 | 0.00 | 0.00 | 75 | 1005.9 |
| 20260505091533 | 15 | 179 | 0.0 | 6.4 | 0.00 | 0.00 | 0.00 | 76 | 1005.7 |
| 20260505090031 | 15 | 158 | 1.6 | 14.5 | 0.00 | 0.00 | 0.00 | 76 | 1005.6 |
| 20260505084530 | 15 | 165 | 1.6 | 6.4 | 0.00 | 0.00 | 0.00 | 76 | 1005.5 |
| 20260505083029 | 15 | 169 | 1.6 | 6.4 | 0.00 | 0.00 | 0.00 | 76 | 1005.5 |
| 20260505081526 | 15 | 126 | 1.6 | 6.4 | 0.00 | 0.00 | 0.00 | 74 | 1005.4 |
| 20260505080028 | 15 | 187 | 1.6 | 9.7 | 0.00 | 0.00 | 0.00 | 75 | 1005.4 |
| 20260505074525 | 16 | 141 | 1.6 | 6.4 | 0.00 | 0.00 | 0.00 | 75 | 1005.3 |
| 20260505073023 | 16 | 94 | 1.6 | 6.4 | 0.00 | 0.00 | 0.00 | 74 | 1005.2 |
| 20260505071522 | 15 | 170 | 1.6 | 6.4 | 0.00 | 0.00 | 0.00 | 74 | 1005.0 |
| 20260505070021 | 16 | 172 | 3.2 | 8.0 | 0.00 | 0.00 | 0.00 | 74 | 1004.9 |
| 20260505064520 | 16 | 158 | 1.6 | 6.4 | 0.00 | 0.00 | 0.00 | 74 | 1004.9 |
| 20260505063019 | 16 | 158 | 3.2 | 8.0 | 0.00 | 0.00 | 0.00 | 74 | 1005.0 |
| 20260505061518 | 16 | 163 | 1.6 | 12.9 | 0.00 | 0.00 | 0.00 | 73 | 1005.1 |
| 20260505060015 | 16 | 153 | 1.6 | 6.4 | 0.00 | 0.00 | 0.00 | 73 | 1005.4 |
| 20260505054513 | 16 | 139 | 1.6 | 6.4 | 0.00 | 0.00 | 0.00 | 72 | 1005.6 |
| 20260505053010 | 17 | 186 | 3.2 | 11.3 | 0.00 | 0.00 | 0.00 | 72 | 1005.6 |
| 20260505051522 | 16 | 143 | 1.6 | 6.4 | 0.00 | 0.00 | 0.00 | 74 | 1005.7 |
| 20260505041601 | 15 | 194 | 0.0 | 3.2 | 0.00 | 0.00 | 0.00 | 77 | 1005.7 |
| 20260505040057 | 16 | 139 | 0.0 | 1.6 | 0.00 | 0.00 | 0.00 | 77 | 1005.8 |
| 20260505034556 | 15 | 197 | 0.0 | 3.2 | 0.00 | 0.00 | 0.00 | 78 | 1005.7 |
| 20260505033056 | 15 | 165 | 0.0 | 0.0 | 0.00 | 0.00 | 0.00 | 79 | 1005.8 |
| 20260505031558 | 15 | 165 | 0.0 | 0.0 | 0.00 | 0.00 | 0.00 | 78 | 1005.7 |
| 20260505030054 | 15 | 110 | 0.0 | 0.0 | 0.00 | 0.00 | 0.00 | 77 | 1005.6 |
| 20260505024555 | 15 | 163 | 0.0 | 0.0 | 0.00 | 0.00 | 0.00 | 75 | 1005.8 |
| 20260505023054 | 16 | 153 | 0.0 | 3.2 | 0.00 | 0.00 | 0.00 | 72 | 1005.7 |
| 20260505021553 | 16 | 264 | 0.0 | 9.7 | 0.00 | 0.00 | 0.00 | 71 | 1005.8 |
| 20260505014553 | 17 | 150 | 0.0 | 3.2 | 0.00 | 0.00 | 0.00 | 68 | 1005.5 |
| 20260505013055 | 17 | 138 | 0.0 | 3.2 | 0.00 | 0.00 | 0.00 | 67 | 1005.5 |
| 20260505011553 | 17 | 143 | 0.0 | 3.2 | 0.00 | 0.00 | 0.00 | 67 | 1005.4 |
| 20260505010108 | 17 | 160 | 0.0 | 3.2 | 0.00 | 0.00 | 0.00 | 65 | 1005.3 |
| 20260505004550 | 18 | 167 | 1.6 | 6.4 | 0.00 | 0.00 | 0.00 | 64 | 1005.3 |
| 20260505003054 | 18 | 170 | 1.6 | 6.4 | 0.00 | 0.00 | 0.00 | 63 | 1005.2 |
| 20260505001549 | 18 | 166 | 1.6 | 6.4 | 0.00 | 0.00 | 0.00 | 62 | 1005.4 |
| 20260505000048 | 18 | 145 | 1.6 | 8.0 | 0.00 | 0.00 | 0.00 | 61 | 1005.4 |
| 20260504234545 | 19 | 128 | 3.2 | 8.0 | 0.00 | 0.00 | 0.00 | 60 | 1005.5 |
| 20260504233100 | 20 | 163 | 1.6 | 9.7 | 0.00 | 0.00 | 0.00 | 59 | 1005.8 |
| 20260504231546 | 20 | 141 | 1.6 | 9.7 | 0.00 | 0.00 | 0.00 | 57 | 1005.8 |
| 20260504230052 | 20 | 127 | 1.6 | 8.0 | 0.00 | 0.00 | 0.00 | 56 | 1005.9 |
| 20260504224542 | 20 | 160 | 1.6 | 8.0 | 0.00 | 0.00 | 0.00 | 56 | 1005.9 |
| 20260504223041 | 21 | 169 | 4.8 | 11.3 | 0.00 | 0.00 | 0.00 | 57 | 1006.0 |
| 20260504221540 | 20 | 232 | 1.6 | 12.9 | 0.00 | 0.00 | 0.00 | 58 | 1006.2 |
| 20260504220040 | 20 | 264 | 3.2 | 8.0 | 0.00 | 0.00 | 0.00 | 55 | 1006.0 |
| 20260504214539 | 20 | 162 | 1.6 | 8.0 | 0.00 | 0.00 | 0.00 | 56 | 1005.8 |
| 20260504213038 | 21 | 190 | 4.8 | 8.0 | 0.00 | 0.00 | 0.00 | 54 | 1006.0 |
| 20260504211539 | 21 | 165 | 4.8 | 19.3 | 0.00 | 0.00 | 0.00 | 52 | 1006.3 |
| 20260504210042 | 22 | 135 | 3.2 | 14.5 | 0.00 | 0.00 | 0.00 | 50 | 1006.6 |
| 20260504204538 | 23 | 82 | 6.4 | 22.5 | 0.00 | 0.00 | 0.00 | 49 | 1006.6 |
| 20260504203050 | 23 | 218 | 3.2 | 14.5 | 0.00 | 0.00 | 0.00 | 49 | 1006.3 |
| 20260504201533 | 23 | 174 | 6.4 | 24.1 | 0.00 | 0.00 | 0.00 | 48 | 1006.3 |
| 20260504200032 | 23 | 264 | 1.6 | 9.7 | 0.00 | 0.00 | 0.00 | 51 | 1006.3 |
| 20260504194534 | 22 | 243 | 1.6 | 16.1 | 0.00 | 0.00 | 0.00 | 50 | 1006.3 |
| 20260504193031 | 23 | 68 | 4.8 | 19.3 | 0.00 | 0.00 | 0.00 | 47 | 1006.4 |
| 20260504191529 | 22 | 172 | 4.8 | 11.3 | 0.00 | 0.00 | 0.00 | 47 | 1006.3 |
| 20260504190028 | 23 | 156 | 6.4 | 16.1 | 0.00 | 0.00 | 0.00 | 48 | 1006.5 |
| 20260504184527 | 23 | 210 | 3.2 | 16.1 | 0.00 | 0.00 | 0.00 | 49 | 1006.7 |
| 20260504183030 | 23 | 219 | 3.2 | 14.5 | 0.00 | 0.00 | 0.00 | 48 | 1006.8 |
| 20260504181520 | 22 | 160 | 3.2 | 12.9 | 0.00 | 0.00 | 0.00 | 57 | 1006.9 |
| 20260504180016 | 22 | 83 | 3.2 | 17.7 | 0.00 | 0.00 | 0.00 | 52 | 1007.0 |
| 20260504174514 | 21 | 127 | 4.8 | 16.1 | 0.00 | 0.00 | 0.00 | 52 | 1007.2 |
| 20260504173010 | 21 | 177 | 6.4 | 17.7 | 0.00 | 0.00 | 0.00 | 53 | 1007.4 |
| 20260504171507 | 20 | 170 | 4.8 | 11.3 | 0.00 | 0.00 | 0.00 | 54 | 1007.7 |